Location: Skalnate Pleso
(49.1889°N, 20.2450°E)
Time: 04:52:21
(UTC+01:00)

ATLAS 5 CENTAUR R/B - Pass Details

Date: 19 November 2019
Orbit: 285 x 14348 km, 60.8° (Epoch: 07 December)

Event Time Altitude Azimuth Distance (km) Brightness Sun altitude
Exits shadow 03:21:05 67° 265° (W) 2,116 4.3 -34.5°
Maximum altitude 03:22:18 72° 226° (SW) 2,292 4.5 -34.3°
Drops below altitude 10° 03:55:30 10° 152° (SSE) 12,045 8.8 -28.9°
Sets 04:12:39 0° 153° (SSE) 15,679 9.5 -26.1°
